Date_and_time,latitude,longitude,wind_speed,RelWindDirFrom,WindDirFrom,air_pressure,air_temperature,relative_humidity,Temp,platform_speed_wrt_ground,air_pressure_at_mean_sea_level,platform_orientation
2019-02-20 23:50,50.6304416666667,-96.9807683333333,5.4,6.6,6,982.73,-10.3,99,0.37,0.0,1011.48,55.2
2019-02-21 00:00,50.6304416666667,-96.9807666666667,4.4,5.4,358,982.73,-10.2,99,0.37,0.0,1011.48,90.0
2019-02-21 00:00,50.6304733333333,-96.98075,4.2,4.2,360,982.76,-10.1,99,0.37,0.0,1011.50,39.5
2019-02-21 00:10,50.6304416666667,-96.9807633333333,3.9,4.7,1,982.74,-10.0,99,0.37,0.0,1011.48,39.5
2019-02-21 00:20,50.63044,-96.9807583333333,3.9,4.9,356,982.73,-9.8,99,0.37,0.0,1011.45,39.5
2019-02-21 00:30,50.6304416666667,-96.98076,4.7,5.9,353,982.75,-9.8,99,0.37,0.0,1011.47,39.5
2019-02-21 00:40,50.630445,-96.9807633333333,5.4,6.5,348,982.79,-9.8,99,0.37,0.0,1011.53,39.5
2019-02-21 00:50,50.630445,-96.9807666666667,4.9,5.9,345,982.81,-9.7,98,0.37,0.0,1011.58,39.5
2019-02-21 01:00,50.6304466666667,-96.9807683333333,4.5,5.3,345,982.85,-9.7,98,0.38,0.0,1011.64,360.0
2019-02-21 01:10,50.6304466666667,-96.9807683333333,4.3,5.3,340,982.88,-9.7,99,0.38,0.0,1011.67,360.0
2019-02-21 01:20,50.6304483333333,-96.9807666666667,4.0,4.7,343,982.86,-9.6,99,0.38,0.0,1011.64,360.0
2019-02-21 01:30,50.6304483333333,-96.9807666666667,3.8,5.0,349,982.89,-9.5,99,0.38,0.0,1011.67,360.0
2019-02-21 01:40,50.63045,-96.9807683333333,4.8,7.3,9,982.84,-9.6,99,0.38,0.0,1011.62,360.0
2019-02-21 01:50,50.630475,-96.980785,5.4,6.7,10,982.80,-10.1,99,0.38,0.0,1011.60,360.0
2019-02-21 02:00,50.63046,-96.9807716666667,4.9,6.2,3,982.83,-10.3,99,0.38,0.0,1011.63,360.0
2019-02-21 02:10,50.6304416666667,-96.9808183333333,4.5,5.6,355,982.87,-10.4,99,0.38,0.0,1011.67,360.0
2019-02-21 02:20,50.6304366666667,-96.9808016666667,4.6,5.8,358,982.92,-10.3,99,0.38,0.0,1011.71,360.0
2019-02-21 02:30,50.63044,-96.98076,5.2,6.3,353,982.96,-10.3,99,0.38,0.0,1011.76,360.0
2019-02-21 02:40,50.6304516666667,-96.9807733333333,4.8,6.4,347,982.96,-10.2,99,0.38,0.0,1011.75,360.0
2019-02-21 02:50,50.63045,-96.9807683333333,4.6,5.7,340,982.98,-10.2,99,0.38,0.0,1011.77,360.0
2019-02-21 03:00,50.63045,-96.98077,4.3,5.8,332,983.05,-10.1,99,0.38,0.0,1011.83,212.1
2019-02-21 03:10,50.6304483333333,-96.98077,4.2,5.6,324,983.08,-10.0,99,0.38,0.0,1011.85,212.1
2019-02-21 03:20,50.6304466666667,-96.98077,4.5,6.5,328,983.09,-9.8,99,0.39,0.0,1011.85,212.1
2019-02-21 03:30,50.6304466666667,-96.98077,3.9,5.7,323,983.09,-9.8,99,0.39,0.0,1011.85,212.1
2019-02-21 03:40,50.6304466666667,-96.98077,4.2,6.2,311,983.12,-9.8,99,0.39,0.0,1011.91,212.1
2019-02-21 03:50,50.6304483333333,-96.98077,5.1,6.7,306,983.18,-9.8,99,0.39,0.0,1011.98,212.1
2019-02-21 04:00,50.63041,-96.9807783333333,4.4,5.8,304,983.28,-9.7,99,0.39,0.0,1012.09,198.5
2019-02-21 04:10,50.6304316666667,-96.980785,4.7,6.7,304,983.34,-9.6,99,0.39,0.0,1012.14,198.5
2019-02-21 04:20,50.630435,-96.9807716666667,5.5,7.1,303,983.39,-9.6,99,0.39,0.0,1012.19,198.5
2019-02-21 04:30,50.6304416666667,-96.9807683333333,5.9,8.3,301,983.49,-9.6,99,0.39,0.0,1012.29,198.5
2019-02-21 04:40,50.630445,-96.9807666666667,5.5,7.0,301,983.53,-9.6,99,0.39,0.0,1012.32,198.5
2019-02-21 04:50,50.6303966666667,-96.9807933333333,5.3,7.5,300,983.58,-9.5,99,0.39,0.0,1012.37,198.5
2019-02-21 05:00,50.630455,-96.9807783333333,5.9,8.4,297,983.60,-9.6,99,0.39,0.0,1012.39,234.7
2019-02-21 05:10,50.63045,-96.98078,6.3,9.3,299,983.68,-9.7,99,0.39,0.0,1012.47,234.7
2019-02-21 05:20,50.6304483333333,-96.9807783333333,5.8,8.3,298,983.78,-9.8,99,0.40,0.0,1012.57,234.7
2019-02-21 05:30,50.6304516666667,-96.9807766666667,5.4,6.9,310,983.87,-9.8,99,0.40,0.0,1012.67,234.7
2019-02-21 05:40,50.6304533333333,-96.9807766666667,4.6,6.5,315,983.95,-10.0,99,0.40,0.0,1012.76,234.7
2019-02-21 05:50,50.6304683333333,-96.9807516666667,4.7,6.5,317,984.00,-10.1,99,0.40,0.0,1012.81,234.7
2019-02-21 06:00,50.63046,-96.9807716666667,4.7,6.5,315,984.09,-10.2,99,0.40,0.0,1012.90,311.7
2019-02-21 06:10,50.630455,-96.9807716666667,5.2,7.4,316,984.15,-10.2,99,0.40,0.0,1012.97,311.7
2019-02-21 06:20,50.6304533333333,-96.9807716666667,5.2,7.3,313,984.28,-10.3,99,0.40,0.0,1013.10,311.7
2019-02-21 06:30,50.6304616666667,-96.9808066666667,5.1,6.9,316,984.42,-10.3,99,0.40,0.0,1013.25,311.7
2019-02-21 06:40,50.6304533333333,-96.980775,4.7,7.0,320,984.52,-10.2,99,0.40,0.0,1013.35,311.7
2019-02-21 06:50,50.6304416666667,-96.98076,4.9,7.4,320,984.56,-10.2,99,0.40,0.0,1013.38,311.7
2019-02-21 07:00,50.6304433333333,-96.9807616666667,5.0,7.3,323,984.59,-10.3,99,0.40,0.0,1013.42,32.5
2019-02-21 07:10,50.6304433333333,-96.9807616666667,5.3,7.5,324,984.67,-10.3,99,0.40,0.0,1013.52,32.5
2019-02-21 07:20,50.630445,-96.980765,5.2,7.7,320,984.77,-10.3,99,0.40,0.0,1013.62,32.5
2019-02-21 07:30,50.630445,-96.9807666666667,5.3,7.4,314,984.91,-10.3,99,0.40,0.0,1013.78,32.5
2019-02-21 07:40,50.6304433333333,-96.98077,5.6,7.6,316,985.06,-10.3,99,0.40,0.0,1013.94,32.5
2019-02-21 07:50,50.6304233333333,-96.9807966666667,5.3,7.6,315,985.20,-10.2,99,0.40,0.0,1014.08,32.5
2019-02-21 08:00,50.6304316666667,-96.9807766666667,5.4,6.8,313,985.28,-10.2,99,0.40,0.0,1014.16,147.9
2019-02-21 08:10,50.6304333333333,-96.980775,5.5,7.0,312,985.36,-10.3,99,0.40,0.0,1014.26,147.9
2019-02-21 08:20,50.6304366666667,-96.980775,5.5,7.5,310,985.50,-10.3,99,0.41,0.0,1014.40,147.9
2019-02-21 08:30,50.6304366666667,-96.980775,5.5,7.5,315,985.58,-10.3,99,0.41,0.0,1014.48,147.9
2019-02-21 08:40,50.6304366666667,-96.980775,5.2,6.8,318,985.69,-10.3,99,0.41,0.0,1014.60,147.9
2019-02-21 08:50,50.6304383333333,-96.9807766666667,4.4,5.9,318,985.93,-10.4,99,0.41,0.0,1014.85,147.9
2019-02-21 09:00,50.6304383333333,-96.9807766666667,5.0,6.9,315,986.12,-10.5,99,0.41,0.0,1015.05,161.1
2019-02-21 09:10,50.63044,-96.9807766666667,4.9,6.5,318,986.28,-10.5,99,0.41,0.0,1015.22,161.1
2019-02-21 09:20,50.6304366666667,-96.98077,5.4,7.7,317,986.38,-10.6,99,0.41,0.0,1015.32,161.1
2019-02-21 09:30,50.6304483333333,-96.9807733333333,6.1,8.8,321,986.42,-10.8,99,0.41,0.0,1015.37,161.1
2019-02-21 09:40,50.6304516666667,-96.9807733333333,6.0,9.0,321,986.48,-10.9,99,0.41,0.0,1015.44,161.1
2019-02-21 09:50,50.6304433333333,-96.98078,5.7,8.3,320,986.53,-11.0,97,0.41,0.0,1015.50,161.1
2019-02-21 10:00,50.6304516666667,-96.9807733333333,5.4,7.2,323,986.57,-11.2,96,0.41,0.0,1015.54,347.4
2019-02-21 10:10,50.6304516666667,-96.9807716666667,5.0,7.2,319,986.66,-11.3,94,0.41,0.0,1015.65,347.4
2019-02-21 10:20,50.63045,-96.98077,5.3,8.4,309,986.76,-11.5,91,0.41,0.0,1015.77,347.4
2019-02-21 10:30,50.6304416666667,-96.9808033333333,5.0,6.6,301,986.84,-11.8,91,0.41,0.0,1015.86,347.4
2019-02-21 10:40,50.63045,-96.980765,4.6,7.0,290,986.95,-12.1,92,0.41,0.0,1016.00,347.4
2019-02-21 10:50,50.630455,-96.9807533333333,6.0,8.4,290,987.08,-12.4,91,0.41,0.0,1016.16,347.4
2019-02-21 11:00,50.6304716666667,-96.9807816666667,5.0,6.8,281,987.32,-12.7,92,0.41,0.0,1016.42,360.0
2019-02-21 11:10,50.6304533333333,-96.9807783333333,5.3,7.4,279,987.45,-13.1,94,0.41,0.0,1016.59,360.0
2019-02-21 11:20,50.63045,-96.9807783333333,5.9,8.1,282,987.61,-13.4,94,0.41,0.0,1016.78,360.0
2019-02-21 11:30,50.6304383333333,-96.9807683333333,6.1,9.6,290,987.75,-13.7,91,0.41,0.0,1016.94,360.0
2019-02-21 11:40,50.630445,-96.9807683333333,6.7,9.6,286,987.86,-14.0,88,0.41,0.0,1017.08,360.0
2019-02-21 11:50,50.6304483333333,-96.9807716666667,6.7,9.7,284,987.98,-14.5,87,0.41,0.0,1017.23,360.0
2019-02-21 12:00,50.6304466666667,-96.98077,6.8,10.4,279,988.12,-14.9,86,0.41,0.0,1017.41,48.3
2019-02-21 12:10,50.6304583333333,-96.9807716666667,7.8,11.7,286,988.16,-15.2,86,0.41,0.0,1017.48,48.3
2019-02-21 12:20,50.6304533333333,-96.98078,7.6,10.4,285,988.31,-15.3,85,0.41,0.0,1017.66,48.3
2019-02-21 12:30,50.6304333333333,-96.9807533333333,6.7,9.7,283,988.54,-15.5,85,0.41,0.0,1017.93,48.3
2019-02-21 12:40,50.6304316666667,-96.9807683333333,8.2,12.2,286,988.63,-15.6,84,0.41,0.0,1018.04,48.3
2019-02-21 12:50,50.630435,-96.98077,8.2,11.2,286,988.74,-15.7,84,0.41,0.0,1018.18,48.3
2019-02-21 13:00,50.63044,-96.98077,8.3,11.7,284,988.82,-15.8,84,0.41,0.0,1018.29,165.5
2019-02-21 13:10,50.63044,-96.9807716666667,6.9,9.4,284,988.99,-15.9,84,0.41,0.0,1018.49,165.5
2019-02-21 13:20,50.6304416666667,-96.9807716666667,7.3,11.5,280,989.13,-16.1,84,0.41,0.0,1018.66,165.5
2019-02-21 13:30,50.6304416666667,-96.9807733333333,7.9,10.3,283,989.22,-16.1,84,0.41,0.0,1018.78,165.5
2019-02-21 13:40,50.6304566666667,-96.98077,8.8,12.4,283,989.34,-16.2,84,0.41,0.0,1018.93,165.5
2019-02-21 13:50,50.6304533333333,-96.98077,8.9,12.0,281,989.51,-16.3,83,0.41,0.0,1019.13,165.5
2019-02-21 14:00,50.630455,-96.9807683333333,8.1,11.5,286,989.73,-16.3,82,0.41,0.0,1019.38,360.0
2019-02-21 14:10,50.6304516666667,-96.9807633333333,7.8,11.1,291,989.97,-16.4,81,0.41,0.0,1019.63,360.0
2019-02-21 14:20,50.63045,-96.9807633333333,6.7,10.4,294,990.16,-16.4,80,0.41,0.0,1019.85,360.0
2019-02-21 14:30,50.63045,-96.9807616666667,7.5,10.8,299,990.24,-16.3,79,0.41,0.0,1019.92,360.0
2019-02-21 14:40,50.63045,-96.9807616666667,7.5,11.2,297,990.37,-16.2,78,0.41,0.0,1020.05,360.0
2019-02-21 14:50,50.63045,-96.9807633333333,6.6,11.2,303,990.57,-16.0,77,0.41,0.0,1020.26,360.0
2019-02-21 15:00,50.6304733333333,-96.9807816666667,7.0,11.3,310,990.67,-15.8,76,0.41,0.0,1020.36,332.8
2019-02-21 15:10,50.6304416666667,-96.9807616666667,7.1,10.0,305,990.80,-15.7,75,0.41,0.0,1020.50,332.8
2019-02-21 15:20,50.6304433333333,-96.9807633333333,5.4,8.4,299,991.02,-15.7,75,0.41,0.0,1020.73,332.8
2019-02-21 15:30,50.6304466666667,-96.980765,6.1,8.5,303,991.07,-15.7,74,0.41,0.0,1020.78,332.8
2019-02-21 15:40,50.6304483333333,-96.9807666666667,6.8,9.7,304,991.27,-15.5,73,0.41,0.0,1020.98,332.8
2019-02-21 15:50,50.6304466666667,-96.9807683333333,5.7,8.5,294,991.57,-15.5,73,0.41,0.0,1021.29,332.8
2019-02-21 16:00,50.63045,-96.9807683333333,6.1,8.9,299,991.78,-15.5,72,0.41,0.0,1021.51,360.0
2019-02-21 16:10,50.6304483333333,-96.9807683333333,6.6,8.9,304,991.91,-15.5,73,0.41,0.0,1021.64,360.0
2019-02-21 16:20,50.6304483333333,-96.9807683333333,6.4,8.9,307,991.99,-15.2,72,0.41,0.0,1021.71,360.0
2019-02-21 16:30,50.6304483333333,-96.98077,6.4,10.2,307,992.13,-15.0,71,0.41,0.0,1021.83,360.0
2019-02-21 16:40,50.6304483333333,-96.9807683333333,6.3,9.4,311,992.33,-14.7,71,0.41,0.0,1022.01,360.0
2019-02-21 16:50,50.6304466666667,-96.9807683333333,6.0,9.9,307,992.53,-14.3,69,0.41,0.0,1022.18,360.0
2019-02-21 17:00,50.6304466666667,-96.9807683333333,6.1,9.6,308,992.64,-13.8,68,0.41,0.0,1022.27,142.0
2019-02-21 17:10,50.6304466666667,-96.9807683333333,5.2,8.6,306,992.73,-13.5,68,0.41,0.0,1022.32,142.0
2019-02-21 17:20,50.6304466666667,-96.9807683333333,4.9,6.9,308,992.93,-13.0,66,0.41,0.0,1022.51,142.0
2019-02-21 17:30,50.6304483333333,-96.9807683333333,5.5,8.0,315,993.01,-12.6,65,0.41,0.0,1022.56,142.0
2019-02-21 17:40,50.6304516666667,-96.9807833333333,5.2,7.5,306,993.14,-12.3,64,0.41,0.0,1022.67,142.0
2019-02-21 17:50,50.63047,-96.9807833333333,6.5,9.4,314,993.25,-12.1,64,0.41,0.0,1022.77,142.0
2019-02-21 18:00,50.6304516666667,-96.9807733333333,6.5,9.7,307,993.45,-12.1,64,0.41,0.0,1022.98,147.9
2019-02-21 18:10,50.630455,-96.9807766666667,5.7,8.2,296,993.67,-11.9,63,0.41,0.0,1023.18,147.9
2019-02-21 18:20,50.6304583333333,-96.9807733333333,4.5,7.6,292,993.89,-11.6,62,0.41,0.0,1023.37,147.9
2019-02-21 18:30,50.63046,-96.9807683333333,5.3,7.8,293,993.96,-11.3,62,0.41,0.0,1023.41,147.9
2019-02-21 18:40,50.6304583333333,-96.98077,5.4,7.4,305,993.99,-11.2,62,0.41,0.0,1023.41,147.9
2019-02-21 18:50,50.6304583333333,-96.9807683333333,5.4,7.8,298,994.09,-11.0,61,0.41,0.0,1023.48,147.9
2019-02-21 19:00,50.6304583333333,-96.9807633333333,6.1,8.5,317,994.05,-10.6,62,0.41,0.0,1023.40,38.0
2019-02-21 19:10,50.6304716666667,-96.98078,5.0,8.1,317,994.07,-10.4,62,0.41,0.0,1023.38,38.0
2019-02-21 19:20,50.6304716666667,-96.9807683333333,1.5,4.5,24,994.17,-9.8,62,0.41,0.0,1023.43,38.0
2019-02-21 19:30,50.6304416666667,-96.9807466666667,3.7,6.8,352,994.15,-9.4,61,0.41,0.0,1023.37,38.0
2019-02-21 19:40,50.6304516666667,-96.98076,5.7,8.0,1,994.11,-10.0,65,0.41,0.0,1023.35,38.0
2019-02-21 19:50,50.6304483333333,-96.980755,5.3,8.6,318,994.19,-9.3,60,0.41,0.0,1023.39,38.0
2019-02-21 20:00,50.6304533333333,-96.980755,6.4,8.1,314,994.18,-9.3,60,0.41,0.0,1023.37,48.3
2019-02-21 20:10,50.6304533333333,-96.9807516666667,6.0,8.3,318,994.20,-9.4,60,0.41,0.0,1023.38,48.3
2019-02-21 20:20,50.630455,-96.9807533333333,5.3,7.2,307,994.24,-9.3,60,0.41,0.0,1023.39,48.3
2019-02-21 20:30,50.6304533333333,-96.980755,4.9,7.4,308,994.20,-9.1,59,0.41,0.0,1023.33,48.3
2019-02-21 20:40,50.63045,-96.9807616666667,4.8,7.4,312,994.25,-9.1,60,0.41,0.0,1023.38,48.3
2019-02-21 20:50,50.6304566666667,-96.9807633333333,5.7,7.7,314,994.31,-9.3,60,0.42,0.0,1023.42,48.3
2019-02-21 21:00,50.630455,-96.9807633333333,5.4,7.7,312,994.23,-9.2,60,0.42,0.0,1023.34,90.0
2019-02-21 21:10,50.630455,-96.9807616666667,4.4,7.2,313,994.33,-9.0,59,0.42,0.0,1023.39,90.0
2019-02-21 21:20,50.6304416666667,-96.9807666666667,4.0,6.4,296,994.48,-9.0,59,0.42,0.0,1023.52,90.0
2019-02-21 21:30,50.63045,-96.980765,4.8,7.0,284,994.58,-9.1,59,0.42,0.0,1023.67,90.0
2019-02-21 21:40,50.63045,-96.98077,5.5,7.6,268,994.70,-9.3,60,0.42,0.0,1023.76,90.0
2019-02-21 21:50,50.63045,-96.9807683333333,4.4,6.8,276,994.80,-9.3,60,0.42,0.0,1023.85,90.0
2019-02-21 22:00,50.63045,-96.9807666666667,5.4,6.9,272,994.80,-9.4,61,0.42,0.0,1023.87,142.0
2019-02-21 22:10,50.6304483333333,-96.98076,5.0,7.4,293,994.89,-9.5,61,0.42,0.0,1023.97,142.0
2019-02-21 22:20,50.6304466666667,-96.980765,4.9,6.8,293,995.00,-9.6,61,0.42,0.0,1024.07,142.0
2019-02-21 22:30,50.6304466666667,-96.980765,4.0,6.1,302,995.04,-9.6,62,0.43,0.0,1024.11,142.0
2019-02-21 22:40,50.630445,-96.9807616666667,3.7,6.4,287,995.17,-9.6,62,0.43,0.0,1024.26,142.0
2019-02-21 22:50,50.6304466666667,-96.9807616666667,4.1,5.4,270,995.20,-9.6,62,0.43,0.0,1024.29,142.0
2019-02-21 23:00,50.6304483333333,-96.9807616666667,4.4,6.6,271,995.17,-9.8,62,0.43,0.0,1024.25,142.0
2019-02-21 23:10,50.6304483333333,-96.9807616666667,2.9,5.1,279,995.28,-9.8,62,0.43,0.0,1024.37,142.0
2019-02-21 23:20,50.63046,-96.98078,2.7,4.9,293,995.43,-9.8,62,0.44,0.0,1024.52,142.0
2019-02-21 23:30,50.630455,-96.9807666666667,2.8,4.3,294,995.45,-9.9,61,0.44,0.0,1024.56,142.0
